Regional Weather Roundup
Issued by NWS

Home | Current Version | Previous Version | Text Only | Print | Product List | Glossary Off
Versions: 1 2 3 4 5 6 7 8 9 10 11 12 13 14 15 16 17 18 19 20 21 22 23 24 25 26 27 28 29 30 31 32 33 34 35 36 37 38 39 40 41 42 43 44 45 46 47 48 49 50

000
ASUS45 KBOU 280307
RWRCO

WEATHER ROUNDUP FOR COLORADO
NATIONAL WEATHER SERVICE DENVER/BOULDER CO
800 PM MST THU NOV 27 2014

NOTE: "FAIR" INDICATES FEW OR NO CLOUDS BELOW 12000 FEET WITH NO
SIGNIFICANT WEATHER AND/OR OBSTRUCTIONS TO VISIBILITY.

COZ001>005-013-030-031-280400-
...NORTHWEST COLORADO...

CITY           SKY/WX    TMP DP  RH WIND       PRES   REMARKS
CRAIG          PTCLDY    32  26  78 CALM      30.27F
HAYDEN         PTCLDY    34  23  64 E9        30.27F WCI  26
MEEKER         MOCLDY    37  22  54 NE6       30.28S
MOUNT WERNER   NOT AVBL
STEAMBOAT SPGS PTCLDY    30  27  89 E3        30.29F
WALDEN         PTCLDY    37  19  48 S12       30.28F
$$

COZ006>008-011-280400-
...WEST CENTRAL VALLEYS...

CITY           SKY/WX    TMP DP  RH WIND       PRES   REMARKS
GRAND JUNCTION PTCLDY    34  26  72 E3        30.29F
MONTROSE       PTCLDY    34  24  67 S8        30.34F WCI  27
EAGLE          PTCLDY    36  27  69 E6        30.35S
RIFLE          PTCLDY    33  27  78 CALM      30.33S
DELTA          PTCLDY    40  27  59 NE7       30.32S
NUCLA          PTCLDY    39  21  48 E7        30.37S
$$

COZ017>023-064>068-280400-
...SOUTHWEST COLORADO...

CITY           SKY/WX    TMP DP  RH WIND       PRES   REMARKS
DURANGO        MOCLDY    35  22  58 N3        30.37F
CORTEZ         CLEAR     30  20  66 E3        30.36S
PAGOSA SPRINGS MOCLDY    32  20  61 CALM      30.41S
TELLURIDE      PTCLDY    36  21  54 SE7       30.47F
WOLF CREEK PAS PTCLDY    30  12  47 MISG      30.54S
$$

COZ009-010-012-014-032>034-037-058>063-280400-
...CENTRAL COLORADO...

CITY           SKY/WX    TMP DP  RH WIND       PRES   REMARKS
ASPEN          PTCLDY    27  20  75 SW5       30.36S WCI  22
BUENA VISTA    CLEAR     45  12  26 NW10G17   30.31F
COPPER MTN     PTCLDY    34  12  40 SW13G22   30.47R WCI  25
BERTHOUD PASS  NOT AVBL
COTTONWOOD PAS CLEAR     45   3  18 W30G51    30.32R
GUNNISON       PTCLDY    23  18  80 CALM      30.45S
KREMMLING      PTCLDY    36  23  60 N3        30.33S
LEADVILLE      PTCLDY    32  13  45 NE9       30.39F WCI  24
MONARCH PASS   CLEAR     28  14  54 W41G52    30.54F WCI  11
SALIDA         CLEAR     51  11  19 W18G30    30.35F
SUNLIGHT       PTCLDY    32  23  69 CALM      30.45F
WILKERSON PASS PTCLDY    34   7  32 MISG      30.33S
$$

COZ069>075-280400-
...SAN LUIS VALLEY/SANGRE DE CRISTO MOUNTAINS...

CITY           SKY/WX    TMP DP  RH WIND       PRES   REMARKS
ALAMOSA        MOCLDY    21  11  65 CALM      30.36S
LA VETA PASS   MOCLDY    37  14  38 S12G22    30.39S
SAGUACHE       PTCLDY    32  19  59 N7        30.37F WCI  26
$$

COZ035-036-038>040-280400-
...NORTHERN COLORADO FRONT RANGE...

CITY           SKY/WX    TMP DP  RH WIND       PRES   REMARKS
DENVER INTL AP MOCLDY    52  19  27 W9        30.10F
DMNS CITY PARK   N/A     50  18  28 S5        30.10F
AURORA         MOCLDY    49  19  29 E6        30.12F
FRONT RANGE AP NOT AVBL
ERIE MUNI ARPT PTCLDY    45  21  39 CALM      30.08F
BOULDER MUN AP PTCLDY    57  19  23 S3        30.07F
CENTENNIAL     PTCLDY    45  20  36 SW5       30.13F
BROOMFIELD     MOCLDY    59  16  18 W17G28    30.11S
FORT COLLINS   PTCLDY    45  21  39 S3        30.09F
LONGMONT       PTCLDY    63  16  16 W13G23    30.08F
$$

COZ041-046-047-076>085-087-088-280400-
...PIKES PEAK/PALMER DIVIDE AND SOUTHERN FOOTHILLS...

CITY           SKY/WX    TMP DP  RH WIND       PRES   REMARKS
COLO. SPRINGS  CLOUDY    54  14  20 NW12      30.18S
A. F. ACADEMY  CLOUDY    50  14  24 VRB3      30.18F
ELLICOTT       NOT AVBL
FALCON         NOT AVBL
FORT CARSON    CLOUDY    56  17  21 SW8       30.16S
LIMON          PTCLDY    31  19  61 NW3       30.13F
MONUMENT HILL  PTCLDY    45  14  29 W7        30.19F
TRINIDAD       CLOUDY    46  25  43 SW14      30.21F
$$

COZ042>045-048>051-090-091-280400-
...NORTHEAST COLORADO...

CITY           SKY/WX    TMP DP  RH WIND       PRES   REMARKS
GREELEY ARPT   CLEAR     43  19  39 CALM      30.07F
AKRON          CLEAR     42  27  55 W13       30.06F
BURLINGTON     MOCLDY    43  25  49 W10       30.08F
WRAY           CLEAR     43  30  60 W10       30.04S
STERLING       CLEAR     41  32  70 SE5       30.03F
HOLYOKE        CLEAR     37  32  81 W8        30.03S
FORT MORGAN    CLEAR     39  25  57 W8        30.06F
$$

COZ086-089-092>099-280400-
...SOUTHEAST COLORADO...

CITY           SKY/WX    TMP DP  RH WIND       PRES   REMARKS
PUEBLO         CLOUDY    51  19  28 W6        30.13F
LA JUNTA       MOCLDY    45  25  45 W5        30.10S
LAMAR          MOCLDY    31  24  75 SW5       30.07F WCI  26
SPRINGFIELD      N/A     43  22  43 SW10      30.12F
$$



USA.gov is the U.S. government's official web portal to all federal, state and local government web resources and services.